Погода Агинское

Погода Агинское : погода сейчас, прогноз погоды и архив. Всё, что Вы хотите узнать о погоде Агинское!

Хотите узнать прогноз погоды Агинское? Тогда Вам сюда: Погода Агинское

Поиск расширенной информации на нашем сайте:

Другие новости

Новости СМИ2

Главная страница сайта

Новости сайта

03.07.2017

Напоминаем, что на нашем специализированном сайте Метеоцентр.Азия вы можете получить высокодетализированные автоматические прогнозы погоды по пунктам России, СНГ и мира в авиационном формате (включающие направление и скорость ветра, видимость, явления погоды, количество и форму облачности, нижнюю и верхнюю границу облачности).


Погода Агинское - сегодня

Время (UTC), дата Ветер
(°,м/с) 
Видим.   Явления Облачность Т
(°С)
Тd
(°С)
f(%) Тe
(°С)
Pmin
(гПа)
dP
(гПа)
Po
(мм)
O2
(г/м3)
Тmin Tmax R s Состояние
почвы
15 17.02.18 280 (З) 20000 м    10/0 верхняя 
[Cs]
-20.7 -25.2 67 -21  1031.1  0.5  706  309           
18 17.02.18 250 (З) 20000 м    10/0 верхняя 
[Cs]
-17.5 -21.8 69 -18  1030.2  0.3  706  306           
21 17.02.18 270 (З) 20000 м    10/0 верхняя 
[Ci fib]
-18 -22 71 -21  1030.5  0.1  706  306           
00 18.02.18 290 (З) 20000 м    10/0 верхняя 
[Ci fib]
-20.5 -24.9 68 -21  1033.1  1.5  707  310  -22.7      равномерный
сухой снег
100% 
03 18.02.18 300 (СЗ) 20000 м    ясно 
-14.3 -22 52 -20  1030.6  -0.2  707  302           
06 18.02.18 290 (З) 20000 м    3/0 верхняя 
[Ci fib]
-11.2 -21.5 42 -15  1027.9  -1.5  706  298           
09 18.02.18 280 (З) 20000 м    8/0 верхняя 
[Ci fib]
-12 -20.9 48 -16  1027.3  -0.8  705  299           
12 18.02.18 290 (З) 20000 м    ясно 
-17 -22.6 62 -17  1030  0.8  706  305    -11       
15 18.02.18 190 (Ю) 20000 м    ясно 
-19.1 -23.3 69 -19  1030.9  0.2  706  308           
18 18.02.18 300 (СЗ) 20000 м    ясно 
-20.8 -24.3 73 -21  1031  -0.5  706  309           
21 18.02.18 250 (З) 20000 м    ясно 
-17.6 -21.8 70 -22  1029.2  -0.6  705  305           
00 19.02.18 220 (ЮЗ) 20000 м    3/0 верхняя 
[Ci fib]
-22.7 -25.5 78 -23  1032  0.8  706  312  -23.3      равномерный
сухой снег
100% 
03 19.02.18 300 (СЗ) 20000 м    ясно 
-14.2 -21.5 54 -19  1028.9  706  302           
06 19.02.18 290 (З) 20000 м    1/1 1000 м 
[Cu hum]
-12.8 -21.9 46 -18  1027.1  -1.1  705  300           
09 19.02.18 300 (СЗ) 20000 м    3/0 верхняя 
[Ci fib]
-12.8 -22.9 43 -17  1026.8  -0.4  705  299           
12 19.02.18 280 (З) 20000 м    ясно 
-17.8 -24.9 54 -22  1029.5  0.9  706  306    -12.1       
15 19.02.18 290 (З) 20000 м    ясно 
-17.7 -23.7 59 -22  1029.6  0.1  706  306           
18 19.02.18 270 (З) 20000 м    ясно 
-20.6 -24.6 70 -21  1030.2  -0.4  705  309           
21 19.02.18 тихо ()   20000 м    ясно 
-25.2 -28.4 75 -25  1031.4  -0.5  705  315           
00 20.02.18 300 (СЗ) 20000 м    3/0 верхняя 
[Ci fib]
-28.3 -31.3 76 -32  1032.9  0.3  705  319  -28.4      равномерный
сухой снег
100% 
03 20.02.18 210 (ЮЗ) 20000 м    3/1 1000 м верхняя 
[Cu hum|Ci fib]
-13.7 -20.6 56 -14  1027.6  0.1  705  301           
06 20.02.18 310 (СЗ) 20000 м    3/3 1000 м верхняя 
[Cu hum|Ci fib]
-11.4 -21 45 -16  1024.7  -2  704  297           
09 20.02.18 270 (З) 20000 м    10/3 1000 м верхняя 
[Cu hum|Ci fib]
-11.5 -18.9 54 -16  1023.9  -0.8  703  297           
12 20.02.18 300 (СЗ) 20000 м    ясно 
-15.3 -20.7 63 -15  1024.5  -0.6  703  301    -10.6       
15 20.02.18 240 (ЮЗ) 20000 м    10/0 верхняя 
[Ci fib]
-18.1 -21.7 73 -18  1023.5  -1.8  701  304           
Время (UTC), дата Ветер
(°,м/с) 
Видим.   Явления Облачность Т
(°С)
Тd
(°С)
f(%) Тe
(°С)
Pmin
(гПа)
dP
(гПа)
Po
(мм)
O2
(г/м3)
Тmin Tmax R s Состояние
почвы

Для получения пояснительной информации подведите курсор к названию столбца.

ПОГОДА Агинское - архив

Всё, что Вы хотите узнать о погоде Агинское - удобно и подробно!

Выберите нужную дату (начиная с 1 января 2015* года) и нажмите кнопку "Найти".
Будут отображены архивные сводки погоды по пункту Агинское, начиная с указанной даты.


Отображать данные в формате CSV (для использования в таблицах Excel)


Внимание! Наш архив погоды предназначен исключительно для личного некоммерческого использования в познавательных целях. Если Вам необходимы официальные справки о состоянии погоды (для производственных, юридических, коммерческих и т.п. целей), обращайтесь в органы Росгидромета.

*Примечание: данная дата относится к архиву по метеостанциям СССР (Россия, СНГ, Балтия).
Архив по метеостанциям Зарубежной Европы и Азии (кроме Китая) хранится 10 дней, по другим регионам земного шара (Китай, Африка, Америка, Австралия, Океания) - 1 день.

Агинское - район местоположения метеостанции


Название, широта, долгота, высота метеостанции:
Агинское 51.1°ш. 114.5°д. 681 м над ур. моря [Российская Федерация]

Дополнительная информация

В oтличие oт бoльшинства пoгoдных сайтoв мы публикуем пoдрoбную метеoинфoрмацию в детальнoм прoфессиoнальнoм фoрмате.

Характеристики температуры и влажнoсти вoздуха измеряются на высoте 2 м в тени вдали oт зданий и деревьев.
Скoрoсть ветра измеряется на высoте 10 м (на урoвне рoста челoвека скoрoсть ветра ниже в 1.5-2 раза). Если метеoстанция нахoдится в гoрoде или в лесу, тo скoрoсть ветра занижена на 2-4 м/с пo сравнению с oткрытым местoм. Скoрoсть ветра над акватoриями крупных рек и oзёр, а также на вершинах хoлмoв на 2-5 м/с выше, чем в oбычных услoвиях.
Атмoсфернoе давление в разных тoчках местнoсти мoжет значительнo oтличаться oт давления на метеoстанции, в зависимoсти oт услoвий рельефа (при пoдъёме на 10 м давление пoнижается примернo на 1 мм рт.ст.).